{"data":{"norad_id":54680,"epoch":"2026-09-19T16:13:47.182656Z","epoch_age_seconds":93199,"freshness":"FRESH","line1":"1 54680U 22166AQ  26262.67624054  .00000084  00000+0  18584-3 0  9992","line2":"2 54680  87.9152 210.0159 0002402  69.1436 290.9952 13.16593618184497","mean_motion":13.16593618,"eccentricity":0.0002402,"inclination_deg":87.9152,"raan_deg":210.0159,"arg_perigee_deg":69.1436,"mean_anomaly_deg":290.9952,"bstar":0.00018584,"rev_number":18449,"period_min":109.37315663032,"perigee_km":1195.9393881193,"apogee_km":1199.5788486145,"semimajor_km":7575.8961183669,"source":"CELESTRAK","updated_at":"2026-09-20T09:00:44.749227Z"}}